User: anonymous   Login
Location: Unspecified
(0.0000°N, 0.0000°E)
Time: 10:22:38
(UTC+00:00)
Language:

GEOS 3 - Orbit

View from above orbital plane
View from above orbital plane
View from above satellite
View from above satellite

Ground track
Ground track

The orbit data is extracted from the following two-line orbital elements,

1  7734U 75027A   19081.39291635 -.00000148 +00000-0 +13490-4 0  9994
2  7734 114.9901 228.5038 0022291 241.1503 118.7337 14.18634676274197
Epoch (UTC): 22 March 2019 09:25:47
Eccentricity: 0.0022291
inclination: 114.9901°
perigee height: 814 km
apogee height: 846 km
right ascension of ascending node: 228.5038°
argument of perigee: 241.1503°
revolutions per day: 14.18634676
mean anomaly at epoch: 118.7337°
orbit number at epoch: 27419

The dashed part of the orbit path shows where the satellite is in the earth's shadow,  

DLR